Regional Weather Roundup
Issued by NWS Newport/Morehead, NC

Current Version | Previous Version | Graphics & Text | Print | Product List | Glossary On
Versions: 1 2 3 4 5 6 7 8 9 10 11 12 13 14 15 16 17 18 19 20 21 22 23 24 25 26 27 28 29 30 31 32 33 34 35 36 37 38 39 40 41 42 43 44 45 46 47 48 49 50
244 ASUS42 KMHX 131425 RWRMHX WEATHER ROUNDUP FOR EASTERN NORTH CAROLINA NATIONAL WEATHER SERVICE NEWPORT/MOREHEAD CITY NC 900 AM EST SAT FEB 13 2016 NOTE: "FAIR" INDICATES FEW OR NO CLOUDS BELOW 12,000 FEET WITH NO SIGNIFICANT WEATHER AND/OR OBSTRUCTIONS TO VISIBILITY NCZ015>017-031-032-045>047-102-103-131500- NORTH COAST CITY SKY/WX TMP DP RH WIND PRES REMARKS EDENTON MOSUNNY 31 20 64 N13G20 30.24R ELIZABETH CITY SUNNY 28 18 66 NW21G31 30.21R WCI 15 KITTY HAWK NOT AVBL MANTEO NOT AVBL $$ NCZ045>047-081-094-103-104-131500- CENTRAL COAST CITY SKY/WX TMP DP RH WIND PRES REMARKS FRISCO SUNNY 36 23 59 NW10G17 30.18R SWANQUARTER N/A 30 N/A N/A NW3 30.18S $$ NCZ095-097-098-100-101-131500- SOUTHERN COAST CITY SKY/WX TMP DP RH WIND PRES REMARKS BEAUFORT SUNNY 35 19 52 N20G28 30.21R CEDAR ISLAND N/A 36 N/A N/A NW23G32 30.27R JACKSONVILLE SUNNY 34 23 64 N13 30.24R PINEY ISLAND SUNNY N/A N/A N/A NW15 30.20R WILMINGTON SUNNY 36 25 64 N9G21 30.24R $$ NCZ011>013-027>030-043-044-078>080-089-090>093-098-131500- COASTAL PLAIN CITY SKY/WX TMP DP RH WIND PRES REMARKS AHOSKIE NOT AVBL CLINTON SUNNY 32 25 76 NW5 30.27R ELIZABETHTOWN SUNNY 34 20 56 N5 30.26R GOLDSBORO SUNNY 32 16 51 N17 30.24R GREENVILLE SUNNY 32 10 40 N16G23 30.26R HAVELOCK SUNNY 34 21 59 N17G26 30.23R KENANSVILLE SUNNY 32 25 76 CALM 30.27R KINSTON SUNNY 30 21 69 N9G16 30.26R NEW BERN SUNNY 33 24 69 N7 30.24R RICHLANDS SUNNY 34 25 69 CALM 30.26R ROCKY MOUNT SUNNY 29 7 39 NW20G31 30.27R WCI 16 WASHINGTON SUNNY 32 11 42 NW12G20 30.24R WHITEVILLE SUNNY 35 18 50 N7G16 30.26R $$ AMZ130-135-150-152-154-156-158-170-250-252-270-ANZ085-086-088-633-658-670-131500- MARINE OBSERVATIONS STATION/POSITION TIME TEMP WIND PRES WAVE SWELL AIR SEA DIR/SP/G HT/PER HT/PER (UTC) (F) (DEG/KT/KT) (MB) (FT/S) (FT/S) CHESAPEAKE LIGHT 1400 27 340/ 30/ 32 1022.1 64 E VA BEACH 1350 32 48 320/ 29/ 37 1019.4 8/ 7 2/10 DUCK 1400 29 340/ 27/ 31 1021.0 2 E DUCK 1311 42 N/A 2/11 2/11 OREGON INLET 1400 30 39 320/ 18/ 25 1022.0 13E OREGON INLT 1400 45 N/A 6/ 5 2/11 HATTERAS CG 1400 33 43 330/ 17/ 18 1021.5 DIAMOND BUOY 1350 38 71 340/ 23/ 29 1021.1 5/ 8 CAPE LOOKOUT NOT AVBL BEAUFORT LAB 1400 35 41 350/ 18/ 24 1022.3 30 SE NEW RVR IN 1408 40 61 1022.1 30 SE NEW RVR IN 1325 61 N/A 4/ 5 27 SE WRIGHTSVLE 1408 42 60 10/ 21/ 27 1022.0 5 SE WRIGHTSVLE 1308 38 50 360/ 17/ 23 1023.3 225 S CAPE HAT 1350 59 68 310/ 19/ 25 N/A 10/ 9 5/14 41 SE CHARLESTON 1350 46 67 360/ 17/ 23 1023.2 4/ 5 2/10 $$

USA.gov is the U.S. government's official web portal to all federal, state and local government web resources and services.